Location: Apollinopolis Magna
(24.9792°N, 32.8772°E)
Time: 05:17:55
(UTC+00:00)

Cosmos 2181 Rocket - Pass Details

Date: 02 March 2021
Orbit: 951 x 1015 km, 82.9° (Epoch: 12 April)

Event Time Altitude Azimuth Distance (km) Brightness Sun altitude
Rises 16:14:16 0° 352° (N) 3,744 7.1 -6.0°
Reaches altitude 10° 16:16:50 10° 351° (N) 2,786 6.5 -6.6°
Maximum altitude 16:23:13 75° 267° (W) 1,033 4.4 -8.0°
Drops below altitude 10° 16:29:29 10° 183° (S) 2,737 6.4 -9.5°
Sets 16:31:59 0° 181° (S) 3,674 7.1 -10.0°
